Location: Bezawada
(16.5136°N, 80.6297°E)
Time: 19:59:02
(UTC+00:00)

Cosmos 2100 Rocket - Pass Details

Date: 27 February 2020
Orbit: 955 x 1002 km, 82.9° (Epoch: 05 April)

Event Time Altitude Azimuth Distance (km) Brightness Sun altitude
Rises 23:20:09 0° 351° (N) 3,630 6.9 -23.8°
Reaches altitude 10° 23:22:40 10° 349° (N) 2,681 6.2 -23.2°
Maximum altitude 23:28:43 68° 268° (W) 1,023 3.8 -21.8°
Drops below altitude 10° 23:34:47 10° 186° (S) 2,678 6.3 -20.3°
Sets 23:37:18 0° 183° (S) 3,626 7.0 -19.7°
